Torna al catalogo

USA 460

AttivoMilitareVLEO
NORAD 62359·PAYLOAD·🇺🇸 United States

Lanciato Dec 17, 2024 da Vandenberg Space Force Base

Loading…

Prossimi Passaggi (prossime 24 ore)

TLE

ObsoletoSource: Mike McCants

Epoca: Aug 20, 2026, 20:38 UTC

1 62359U 24243V   26232.85980635 0.00000000  00000-0  00000-0 0    02
2 62359  70.0216 134.6473 0004000  64.4936 295.5064 14.96713559    08

Traccia USA 460 in tempo reale con AllMySat

Download on the App Store